BMCB-34 Weather Reports


time (UTC)temp
C
wind
direction
speed
KPH
gust
KPH
rain 1hr
cm
rain 24hr
cm
rain mn
cm
humidity
%
barometer
mb
20260504151024 16 0 0.0 0.0 0.00 0.00 0.00 71 1007.8
20260504141022 16 0 0.0 0.0 0.00 0.00 0.00 72 1008.1
20260504141020 16 0 0.0 0.0 0.00 0.00 0.00 71 1008.2
20260504081036 13 0 0.0 0.0 0.00 0.00 0.00 74 1009.0
20260504045028 7 0 0.0 0.0 0.00 0.00 0.00 92 1008.6
20260504043026 7 0 0.0 0.0 0.00 0.00 0.00 93 1008.5
20260504042022 7 0 0.0 0.0 0.00 0.00 0.00 93 1008.5
20260504040025 7 0 0.0 0.0 0.00 0.00 0.00 94 1008.7
20260504035029 7 0 0.0 0.0 0.00 0.00 0.00 94 1008.7
20260504034022 7 0 0.0 0.0 0.00 0.00 0.00 94 1008.7
20260504033024 7 0 0.0 0.0 0.00 0.00 0.00 94 1008.7
20260504032031 7 0 0.0 0.0 0.00 0.00 0.00 93 1008.8
20260504031029 7 0 0.0 0.0 0.00 0.00 0.00 93 1008.7
20260504030030 7 0 0.0 0.0 0.00 0.00 0.00 93 1008.7
20260504025025 7 0 0.0 0.0 0.00 0.00 0.00 93 1008.7
20260504024033 7 0 0.0 0.0 0.00 0.00 0.00 92 1008.7
20260504023028 7 0 0.0 0.0 0.00 0.00 0.00 92 1008.7
20260504022024 8 0 0.0 0.0 0.00 0.00 0.00 92 1008.6
20260504021024 8 0 0.0 0.0 0.00 0.00 0.00 92 1008.5
20260504020030 8 0 0.0 0.0 0.00 0.00 0.00 92 1008.6
20260504015026 8 0 0.0 0.0 0.00 0.00 0.00 91 1008.7
20260504014030 8 0 0.0 0.0 0.00 0.00 0.00 91 1008.7
20260504013029 8 0 0.0 0.0 0.00 0.00 0.00 91 1008.7
20260504012032 8 0 0.0 0.0 0.00 0.00 0.00 91 1008.7
20260504011033 8 0 0.0 0.0 0.00 0.00 0.00 91 1008.8
20260504005029 8 0 0.0 0.0 0.00 0.00 0.00 91 1008.7
20260504004030 8 0 0.0 0.0 0.00 0.00 0.00 91 1008.7
20260504002030 8 0 0.0 0.0 0.00 0.00 0.00 90 1008.6
20260504001033 8 0 0.0 0.0 0.00 0.00 0.00 90 1008.6
20260503235036 9 0 0.0 0.0 0.00 0.00 0.00 89 1008.6
20260503234034 9 0 0.0 0.0 0.00 0.00 0.00 89 1008.5
20260503233031 9 0 0.0 0.0 0.00 0.00 0.00 89 1008.5
20260503232030 9 0 0.0 0.0 0.00 0.00 0.00 88 1008.5
20260503231033 9 0 0.0 0.0 0.00 0.00 0.00 88 1008.5
20260503230039 10 0 0.0 0.0 0.00 0.00 0.00 88 1008.6
20260503225032 10 0 0.0 0.0 0.00 0.00 0.00 87 1008.6
20260503224032 10 0 0.0 0.0 0.00 0.00 0.00 87 1008.6
20260503223031 10 0 0.0 0.0 0.00 0.00 0.00 87 1008.6
20260503221032 10 0 0.0 0.0 0.00 0.00 0.00 85 1008.6
20260503220036 10 0 0.0 0.0 0.00 0.00 0.00 85 1008.5
20260503215034 10 0 0.0 0.0 0.00 0.00 0.00 85 1008.5
20260503214031 11 0 0.0 0.0 0.00 0.00 0.00 84 1008.5
20260503213034 11 0 0.0 0.0 0.00 0.00 0.00 82 1008.4
20260503211035 11 0 0.0 0.0 0.00 0.00 0.00 81 1008.4
20260503210033 11 0 0.0 0.0 0.00 0.00 0.00 81 1008.4
20260503205033 11 0 0.0 0.0 0.00 0.00 0.00 82 1008.5
20260503204039 11 0 0.0 0.0 0.00 0.00 0.00 82 1008.5
20260503202033 11 0 0.0 0.0 0.00 0.00 0.00 82 1008.4
20260503201038 12 0 0.0 0.0 0.00 0.00 0.00 81 1008.4
20260503200034 12 0 0.0 0.0 0.00 0.00 0.00 80 1008.4
20260503194035 12 0 0.0 0.0 0.00 0.00 0.00 79 1008.3
20260503191033 13 0 0.0 0.0 0.00 0.00 0.00 77 1008.3
20260503190034 13 0 0.0 0.0 0.00 0.00 0.00 77 1008.1
20260503185035 14 0 0.0 0.0 0.00 0.00 0.00 75 1008.0
20260503184036 15 0 0.0 0.0 0.00 0.00 0.00 73 1007.9
20260503183033 16 0 0.0 0.0 0.00 0.00 0.00 67 1007.8
20260503181017 16 0 0.0 0.0 0.00 0.00 0.00 62 1007.5
20260503180023 16 0 0.0 0.0 0.00 0.00 0.00 62 1007.5
20260503175021 16 0 0.0 0.0 0.00 0.00 0.00 62 1007.6
20260503174017 16 0 0.0 0.0 0.00 0.00 0.00 62 1007.7
20260503173017 16 0 0.0 0.0 0.00 0.00 0.00 62 1007.7
20260503172022 16 0 0.0 0.0 0.00 0.00 0.00 63 1007.8
20260503171016 16 0 0.0 0.0 0.00 0.00 0.00 63 1007.9